Location: Mentone
(34.5413°N, 85.5351°W)
Time: 01:24:51
(UTC-05:00)

Amateur Radio Satellites - All Passes

Search period start: 02 October 2014 00:54
Search period end: 03 October 2014 00:54
Location: Mentone, 34.5413°N, 85.5351°W

Satellite Date Start Highest point End Downlink Frequencies (MHz)
Time Altitude Azimuth
KITSAT 1 02 Oct 00:56:53 01:03:24 26° 48° (NE) 01:09:52 435.175 FM
Oscar 16 02 Oct 01:30:22 01:34:45 28° 97° (E) 01:39:05 437.025 USB, Beacon 2401.1428
AO-Echo 02 Oct 01:33:58 01:36:34 14° 93° (E) 01:39:11 ?
RS-15 02 Oct 01:34:00 01:44:46 58° 112° (ESE) 01:55:19 29.354 - 29.394 USB, Beacon 29.352 USB
AO-27 02 Oct 01:43:02 01:45:42 14° 93° (E) 01:48:21 436.795 MHz FM
Gurwin Techsat 1B 02 Oct 02:13:09 02:15:34 13° 92° (E) 02:17:59 435.225 FM
Oscar 19 02 Oct 02:27:45 02:32:53 77° 285° (WNW) 02:37:59 437.125 CW, 437.150 USB
TMSAT-1 02 Oct 02:40:09 02:43:46 18° 94° (E) 02:47:22 436.925 FM
ITAMSAT 1 02 Oct 02:41:37 02:46:46 57° 101° (E) 02:51:54 435.822 SSB
Uribyol 2 02 Oct 02:42:14 02:47:26 62° 101° (ESE) 02:52:35 436.500 FM
JAS-1B 02 Oct 02:51:19 02:57:05 90° 283° (WNW) 03:03:30 435.800 - 435.900 CW/SSB
KITSAT 1 02 Oct 02:51:24 02:59:24 69° 247° (WSW) 03:07:22 435.175 FM
Oscar 16 02 Oct 03:09:37 03:13:59 29° 291° (WNW) 03:18:20 437.025 USB, Beacon 2401.1428
AO-Echo 02 Oct 03:10:37 03:15:34 57° 286° (WNW) 03:20:39 ?
AO-27 02 Oct 03:20:23 03:25:31 58° 287° (WNW) 03:30:37 436.795 MHz FM
ISS 02 Oct 03:46:25 03:48:50 18° 32° (NNE) 03:51:15 145.800 FM
RS-15 02 Oct 03:47:31 03:57:28 38° 312° (NW) 04:07:25 29.354 - 29.394 USB, Beacon 29.352 USB
OPAL 02 Oct 03:47:39 03:51:36 22° 65° (ENE) 03:55:33 ?
Gurwin Techsat 1B 02 Oct 03:50:39 03:55:53 62° 286° (WNW) 04:01:07 435.225 FM
SO-50 02 Oct 04:12:03 04:16:54 77° 60° (ENE) 04:21:47 436.795 FM
MaSat-1 02 Oct 04:12:06 04:15:39 21° 104° (ESE) 04:19:08 437.345 MHz
TMSAT-1 02 Oct 04:18:48 04:23:51 45° 288° (WNW) 04:28:52 436.925 FM
ITAMSAT 1 02 Oct 04:22:46 04:25:44 15° 296° (WNW) 04:28:42 435.822 SSB
Uribyol 2 02 Oct 04:23:38 04:26:19 14° 296° (WNW) 04:28:59 436.500 FM
Uosat F 02 Oct 04:33:13 04:37:51 36° 98° (E) 04:42:27 435.120 FM
UOSAT-12 02 Oct 04:36:01 04:38:17 13° 46° (NE) 04:40:32 437.025 FM, 437.400 FM
AO-7 02 Oct 04:44:13 04:52:21 57° 103° (ESE) 05:00:28 29.400 - 29.500 MHz
ISS 02 Oct 05:22:30 05:25:39 42° 227° (SW) 05:28:48 145.800 FM
OPAL 02 Oct 05:25:19 05:30:10 39° 259° (W) 05:35:04 ?
MaSat-1 02 Oct 05:47:20 05:51:51 38° 297° (WNW) 05:56:12 437.345 MHz
JAS-2 02 Oct 06:00:51 06:07:37 54° 100° (E) 06:15:00 435.800 - 435.900 CW/SSB, 435.910 FM
RS-15 02 Oct 06:10:21 06:14:26 12° 345° (NNW) 06:18:32 29.354 - 29.394 USB, Beacon 29.352 USB
Uosat F 02 Oct 06:12:32 06:16:22 22° 293° (WNW) 06:20:11 435.120 FM
UOSAT-12 02 Oct 06:14:15 06:18:57 73° 243° (WSW) 06:23:33 437.025 FM, 437.400 FM
Hamsat 02 Oct 06:17:03 06:21:10 53° 100° (E) 06:25:13 145.90 MHz
STRAND 1 02 Oct 06:28:34 06:33:32 56° 73° (ENE) 06:38:31 ?
AO-7 02 Oct 06:37:51 06:44:37 29° 300° (WNW) 06:51:24 29.400 - 29.500 MHz
SO-67 02 Oct 07:41:06 07:44:33 71° 101° (E) 07:47:58 435.3500 MHz FM
JAS-2 02 Oct 07:46:46 07:52:17 27° 293° (WNW) 07:58:13 435.800 - 435.900 CW/SSB, 435.910 FM
PCSat 02 Oct 07:54:17 07:57:57 19° 105° (ESE) 08:01:37 145.825 MHz
Hamsat 02 Oct 07:55:44 07:56:36 11° 294° (WNW) 07:57:28 145.90 MHz
STRAND 1 02 Oct 08:10:28 08:13:00 14° 267° (W) 08:15:34 ?
RS-15 02 Oct 08:28:10 08:34:02 15° 24° (NNE) 08:39:57 29.354 - 29.394 USB, Beacon 29.352 USB
Sapphire 02 Oct 09:09:59 09:15:23 89° 295° (WNW) 09:20:50 437.095 MHz 1200 baud AX-25 AFSK
UKube-1 02 Oct 09:11:17 09:13:13 13° 93° (E) 09:15:08 145.840 MHz, 145.915 MHz
PCSat 02 Oct 09:35:42 09:40:55 48° 300° (WNW) 09:46:10 145.825 MHz
HO-68 02 Oct 09:36:41 09:43:51 68° 103° (ESE) 09:50:59 435.675 MHz FM
ZACube-1 02 Oct 09:53:38 09:55:37 13° 92° (E) 09:57:36 437.345 MHz
Oscar 11 02 Oct 10:14:34 10:18:51 60° 101° (E) 10:23:05 145.825 FM, Beacon 2401.500 USB
RS-15 02 Oct 10:39:15 10:50:01 50° 53° (NE) 11:01:09 29.354 - 29.394 USB, Beacon 29.352 USB
FUNcube-1 02 Oct 10:42:22 10:46:45 49° 99° (E) 10:51:00 145.950 - 145.970 MHz USB
UKube-1 02 Oct 10:45:25 10:49:36 45° 287° (WNW) 10:53:45 145.840 MHz, 145.915 MHz
Sapphire 02 Oct 10:57:25 10:59:33 12° 313° (NW) 11:01:41 437.095 MHz 1200 baud AX-25 AFSK
HO-68 02 Oct 11:25:50 11:30:52 21° 299° (WNW) 11:35:54 435.675 MHz FM
ZACube-1 02 Oct 11:27:55 11:32:16 47° 286° (WNW) 11:36:30 437.345 MHz
Oscar 11 02 Oct 11:54:04 11:54:27 10° 295° (WNW) 11:54:51 145.825 FM, Beacon 2401.500 USB
Oscar 19 02 Oct 12:05:56 12:07:30 11° 63° (ENE) 12:09:04 437.125 CW, 437.150 USB
FUNcube-1 02 Oct 12:20:29 12:22:38 13° 294° (WNW) 12:24:46 145.950 - 145.970 MHz USB
Oscar 16 02 Oct 12:43:58 12:48:24 29° 69° (ENE) 12:52:51 437.025 USB, Beacon 2401.1428
AO-Echo 02 Oct 12:45:14 12:46:47 12° 64° (ENE) 12:48:21 ?
RS-15 02 Oct 12:51:52 13:02:10 44° 252° (WSW) 13:12:56 29.354 - 29.394 USB, Beacon 29.352 USB
AO-27 02 Oct 12:58:02 13:01:06 16° 65° (ENE) 13:04:11 436.795 MHz FM
Saudisat 1A 02 Oct 13:07:03 13:11:15 48° 115° (ESE) 13:15:29 436.775 MHz
Gurwin Techsat 1B 02 Oct 13:30:52 13:34:00 16° 65° (ENE) 13:37:07 435.225 FM
JAS-1B 02 Oct 13:32:02 13:39:38 59° 73° (ENE) 13:46:00 435.800 - 435.900 CW/SSB
Oscar 19 02 Oct 13:40:56 13:46:08 77° 257° (WSW) 13:51:20 437.125 CW, 437.150 USB
ITAMSAT 1 02 Oct 13:56:09 14:01:13 60° 74° (ENE) 14:06:20 435.822 SSB
Uribyol 2 02 Oct 13:56:35 14:01:42 66° 74° (ENE) 14:06:52 436.500 FM
TMSAT-1 02 Oct 13:57:40 14:01:33 21° 67° (ENE) 14:05:27 436.925 FM
MaSat-1 02 Oct 14:07:38 14:08:35 11° 54° (NE) 14:09:30 437.345 MHz
AO-Echo 02 Oct 14:20:22 14:24:59 61° 259° (W) 14:29:40 ?
Oscar 16 02 Oct 14:23:14 14:27:39 28° 263° (W) 14:32:05 437.025 USB, Beacon 2401.1428
AO-27 02 Oct 14:35:05 14:40:07 54° 259° (W) 14:45:12 436.795 MHz FM
Saudisat 1A 02 Oct 14:48:18 14:51:04 16° 311° (NW) 14:53:51 436.775 MHz
Gurwin Techsat 1B 02 Oct 15:08:15 15:13:26 56° 259° (W) 15:18:40 435.225 FM
KITSAT 1 02 Oct 15:22:07 15:28:22 25° 104° (ESE) 15:34:37 435.175 FM
JAS-1B 02 Oct 15:24:44 15:30:18 21° 263° (W) 15:35:18 435.800 - 435.900 CW/SSB
TMSAT-1 02 Oct 15:36:12 15:41:09 41° 261° (W) 15:46:08 436.925 FM
ITAMSAT 1 02 Oct 15:38:44 15:41:03 13° 268° (W) 15:43:23 435.822 SSB
AO-7 02 Oct 15:39:10 15:47:12 57° 68° (ENE) 15:55:13 29.400 - 29.500 MHz
Uribyol 2 02 Oct 15:39:40 15:41:34 12° 268° (W) 15:43:27 436.500 FM
MaSat-1 02 Oct 15:42:37 15:45:04 22° 255° (WSW) 15:47:16 437.345 MHz
Uosat F 02 Oct 15:43:12 15:47:41 35° 70° (ENE) 15:52:11 435.120 FM
Oscar 10/S400 02 Oct 15:58:56 16:17:19 57° 158° (SSE) 16:51:08 145.825 - 145.975 CW/USB, Beacon 145.810 USB
JAS-2 02 Oct 16:15:04 16:16:13 11° 60° (ENE) 16:17:23 435.800 - 435.900 CW/SSB, 435.910 FM
Hamsat 02 Oct 17:07:16 17:10:48 25° 71° (ENE) 17:14:20 145.90 MHz
KITSAT 1 02 Oct 17:15:11 17:23:08 61° 301° (WNW) 17:31:08 435.175 FM
Uosat F 02 Oct 17:22:40 17:26:29 22° 264° (W) 17:30:19 435.120 FM
AO-7 02 Oct 17:33:29 17:40:14 28° 263° (W) 17:47:02 29.400 - 29.500 MHz
OPAL 02 Oct 17:38:31 17:43:36 75° 105° (ESE) 17:48:34 ?
JAS-2 02 Oct 17:55:22 18:00:31 75° 258° (WSW) 18:05:54 435.800 - 435.900 CW/SSB, 435.910 FM
Sapphire 02 Oct 18:01:49 18:06:46 35° 57° (ENE) 18:11:40 437.095 MHz 1200 baud AX-25 AFSK
PANSAT 02 Oct 18:08:34 18:11:07 17° 162° (SSE) 18:13:40 not established
SO-67 02 Oct 18:12:07 18:13:49 13° 70° (ENE) 18:15:31 435.3500 MHz FM
SO-50 02 Oct 18:23:43 18:28:04 57° 116° (ESE) 18:32:32 436.795 FM
PCSat 02 Oct 18:26:56 18:32:20 63° 62° (ENE) 18:37:40 145.825 MHz
Hamsat 02 Oct 18:43:14 18:46:39 23° 264° (W) 18:50:04 145.90 MHz
STRAND 1 02 Oct 18:43:18 18:47:32 25° 96° (E) 18:51:44 ?
KITSAT 1 02 Oct 19:16:34 19:20:19 14° 323° (NW) 19:24:05 435.175 FM
OPAL 02 Oct 19:20:08 19:21:46 12° 300° (WNW) 19:23:24 ?
SO-67 02 Oct 19:43:38 19:46:33 26° 263° (W) 19:49:29 435.3500 MHz FM
Sapphire 02 Oct 19:45:29 19:50:00 27° 253° (WSW) 19:54:29 437.095 MHz 1200 baud AX-25 AFSK
PANSAT 02 Oct 19:47:23 19:50:49 31° 174° (S) 19:54:15 not established
HO-68 02 Oct 20:01:49 20:08:07 35° 66° (ENE) 20:14:26 435.675 MHz FM
SO-50 02 Oct 20:06:24 20:08:59 15° 313° (NW) 20:11:38 436.795 FM
PCSat 02 Oct 20:12:25 20:15:07 14° 257° (WSW) 20:17:50 145.825 MHz
UOSAT-12 02 Oct 20:21:44 20:26:19 79° 118° (ESE) 20:31:01 437.025 FM, 437.400 FM
STRAND 1 02 Oct 20:22:08 20:26:40 32° 290° (WNW) 20:31:11 ?
ISS 02 Oct 20:25:36 20:28:35 31° 131° (SE) 20:31:35 145.800 FM
Oscar 11 02 Oct 21:06:21 21:10:10 30° 72° (ENE) 21:13:58 145.825 FM, Beacon 2401.500 USB
PANSAT 02 Oct 21:27:13 21:30:37 29° 187° (S) 21:34:00 not established
FUNcube-1 02 Oct 21:35:26 21:39:13 27° 70° (ENE) 21:43:04 145.950 - 145.970 MHz USB
UKube-1 02 Oct 21:37:01 21:41:20 85° 258° (WSW) 21:45:42 145.840 MHz, 145.915 MHz
Saudisat 1A 02 Oct 21:37:59 21:40:45 16° 49° (NE) 21:43:31 436.775 MHz
HO-68 02 Oct 21:49:07 21:55:39 39° 261° (W) 22:02:14 435.675 MHz FM
ISS 02 Oct 22:02:38 22:05:18 22° 326° (NNW) 22:07:59 145.800 FM
UOSAT-12 02 Oct 22:05:08 22:07:03 12° 315° (NW) 22:08:58 437.025 FM, 437.400 FM
ZACube-1 02 Oct 22:20:09 22:24:41 88° 77° (ENE) 22:29:19 437.345 MHz
Oscar 11 02 Oct 22:43:13 22:46:20 19° 265° (W) 22:49:28 145.825 FM, Beacon 2401.500 USB
PANSAT 02 Oct 23:08:00 23:10:17 15° 199° (SSW) 23:12:34 not established
FUNcube-1 02 Oct 23:11:50 23:15:30 24° 265° (W) 23:19:14 145.950 - 145.970 MHz USB
Saudisat 1A 02 Oct 23:16:19 23:20:35 48° 245° (WSW) 23:24:48 436.775 MHz
